Location: Cointrin
(46.2167°N, 6.1167°E)
Time: 19:45:48
(UTC+00:00)

Cosmos 2369 Rocket - Pass Details

Date: 08 February 2023
Orbit: 829 x 852 km, 71.0° (Epoch: 21 March)

Event Time Altitude Azimuth Distance (km) Brightness Sun altitude
Rises 18:56:09 0° 341° (NNW) 3,382 5.6 -22.1°
Reaches altitude 10° 18:59:46 10° 5° (N) 2,446 4.6 -22.8°
Enters shadow 19:01:26 14° 22° (NNE) 2,188 4.2 -23.0°
